Tracking 18852 objects as of 23-Nov-2017
HD Live streaming from Space Station
objects crossing your sky now

FENGYUN 1C DEB

Track FENGYUN 1C DEB now!
10-day predictions


NORAD ID: 33688
Int'l Code: 1999-025DFZ
Perigee: 779.5 km
Apogee: 893.4 km
Inclination: 99.4 °
Period: 101.5 minutes
Semi major axis: 7207 km
RCS: 0.008 m2 (small)
Launch date: May 10, 1999
Source: People's Republic of China (PRC)
Launch site: Taiyaun Space Center, China (TSC)

Note: This is SATELLITE DEBRIS
aabbcc
Your satellite tracking list
Your tracking list is empty




NASA's NSSDC Master Catalog

Two Line Element Set (TLE):
1 33688U 99025DFZ 17327.56731284  .00001207  00000-0  58561-3 0  9997
2 33688  99.3888 186.7017 0078990 358.1297   1.9570 14.18832495496863
Source of the keplerian elements: AFSPC